Location: ??????
(38.0131°N, 23.7723°E)
Time: 06:25:37
(UTC+00:00)

ATLAS 5 CENTAUR R/B - Pass Details

Date: 17 October 2021
Orbit: 497 x 1159 km, 63.4° (Epoch: 25 November)

Event Time Altitude Azimuth Distance (km) Brightness Sun altitude
Rises 18:22:04 0° 266° (W) 2,614 5.8 -31.7°
Reaches altitude 10° 18:25:26 10° 299° (WNW) 1,799 4.7 -32.3°
Maximum altitude 18:27:02 12° 323° (NW) 1,713 4.4 -32.6°
Enters shadow 18:27:59 11° 337° (NNW) 1,785 4.3 -32.8°
